SQ5DCP-1 Weather Reports


Display with metric or nautical units.
time (UTC)temp
F
wind
direction
speed
MPH
gust
MPH
rain 1hr
in
rain 24hr
in
rain mn
in
humidity
%
barometer
mb
20260507232518 54 350 2.0 6.0 0.00 0.01 0.00 81 1015.3
20260507232017 54 354 2.0 4.0 0.00 0.01 0.00 81 1015.4
20260507231534 54 345 3.0 7.0 0.00 0.01 0.00 81 1015.4
20260507231034 54 343 3.0 7.0 0.00 0.01 0.00 81 1015.4
20260507230530 54 349 3.0 6.0 0.00 0.01 0.00 81 1015.5
20260507230029 54 329 2.0 6.0 0.00 0.01 0.00 81 1015.5
20260507225527 54 311 2.0 6.0 0.00 0.01 0.00 81 1015.5
20260507225025 54 337 2.0 6.0 0.00 0.01 0.00 81 1015.5
20260507224523 54 321 2.0 4.0 0.00 0.01 0.00 81 1015.5
20260507224022 54 318 3.0 9.0 0.00 0.01 0.00 81 1015.4
20260507223520 55 303 3.0 6.0 0.00 0.01 0.00 81 1015.5
20260507223018 54 309 2.0 6.0 0.00 0.01 0.00 81 1015.4
20260507222516 54 308 2.0 4.0 0.00 0.01 0.00 81 1015.3
20260507222034 55 341 3.0 7.0 0.00 0.01 0.00 81 1015.2
20260507221532 55 352 1.0 4.0 0.00 0.01 0.00 81 1015.1
20260507221031 55 339 3.0 7.0 0.00 0.01 0.00 81 1015.1
20260507220528 55 336 3.0 7.0 0.00 0.01 0.00 81 1015.0
20260507220027 55 328 3.0 8.0 0.00 0.01 0.01 81 1015.0
20260507215526 55 350 3.0 9.0 0.00 0.01 0.01 81 1014.9
20260507215023 55 352 4.0 9.0 0.00 0.01 0.01 81 1014.7
20260507214522 55 338 3.0 11.0 0.00 0.01 0.01 81 1014.7
20260507214054 55 354 4.0 8.0 0.00 0.01 0.01 81 1014.8
20260507214020 55 354 4.0 8.0 0.00 0.01 0.01 81 1014.8
20260507213518 56 353 3.0 9.0 0.00 0.01 0.01 81 1014.7
20260507213050 56 346 4.0 9.0 0.00 0.01 0.01 81 1014.6
20260507213016 56 346 4.0 9.0 0.00 0.01 0.01 81 1014.6
20260507212535 57 329 3.0 6.0 0.00 0.01 0.01 81 1014.6
20260507212032 57 328 2.0 6.0 0.00 0.01 0.01 81 1014.7
20260507211531 57 293 2.0 4.0 0.00 0.01 0.01 81 1014.8
20260507211029 57 302 3.0 7.0 0.00 0.01 0.01 81 1014.6
20260507210527 57 297 4.0 8.0 0.00 0.01 0.01 81 1014.6
20260507210025 57 302 1.0 4.0 0.00 0.01 0.01 80 1014.3
20260507205523 57 73 1.0 2.0 0.00 0.01 0.01 79 1014.1
20260507205022 58 11 1.0 4.0 0.00 0.01 0.01 79 1014.4
20260507204518 58 350 1.0 4.0 0.00 0.01 0.01 78 1014.4
20260507204016 58 58 0.0 1.0 0.00 0.01 0.01 77 1014.1
20260507203534 58 105 0.0 2.0 0.00 0.01 0.01 77 1014.1
20260507203033 58 0.0 0.0 0.00 0.01 0.01 77 1014.1
20260507202531 58 102 1.0 2.0 0.00 0.01 0.01 77 1014.1
20260507202029 58 0.0 0.0 0.00 0.01 0.01 77 1014.1
20260507201527 58 0.0 0.0 0.00 0.01 0.01 77 1014.1
20260507201025 58 0.0 0.0 0.00 0.01 0.01 77 1014.2
20260507200524 58 78 0.0 1.0 0.00 0.01 0.01 77 1014.2
20260507200021 58 344 0.0 1.0 0.00 0.01 0.01 77 1014.3
20260507195519 58 339 0.0 1.0 0.00 0.01 0.01 77 1014.3
20260507195018 58 328 1.0 4.0 0.00 0.01 0.01 77 1014.4
20260507194536 58 338 0.0 2.0 0.00 0.01 0.01 77 1014.5
20260507194034 58 314 0.0 2.0 0.00 0.01 0.01 78 1014.4
20260507193532 58 342 1.0 3.0 0.00 0.01 0.01 78 1014.5
20260507193048 58 317 1.0 4.0 0.00 0.00 0.01 78 1014.4
20260507193030 58 317 1.0 4.0 0.00 0.01 0.01 78 1014.4
20260507192528 58 318 2.0 4.0 0.00 0.01 0.01 79 1014.4
20260507192026 58 308 2.0 8.0 0.00 0.01 0.01 79 1014.5
20260507191524 58 332 2.0 4.0 0.00 0.01 0.01 79 1014.4
20260507191023 58 345 3.0 6.0 0.01 0.01 0.01 78 1014.3
20260507190521 58 348 3.0 7.0 0.01 0.01 0.01 78 1014.3
20260507190052 58 342 2.0 9.0 0.01 0.01 0.01 78 1014.2
20260507190019 58 342 2.0 9.0 0.01 0.01 0.01 78 1014.2
20260507185517 59 344 3.0 6.0 0.01 0.01 0.01 78 1014.2
20260507185035 59 353 4.0 7.0 0.01 0.01 0.01 78 1014.2
20260507184534 59 347 3.0 7.0 0.01 0.01 0.01 77 1014.1
20260507184032 59 342 4.0 11.0 0.01 0.01 0.01 76 1014.1
20260507183531 60 352 4.0 8.0 0.01 0.01 0.01 76 1014.0
20260507183028 60 348 4.0 7.0 0.01 0.01 0.01 75 1014.0
20260507182526 60 338 3.0 7.0 0.01 0.01 0.01 74 1013.9
20260507182025 61 347 3.0 6.0 0.01 0.01 0.01 73 1013.8
20260507181523 61 350 2.0 4.0 0.00 0.00 0.00 73 1013.7
20260507181021 61 340 2.0 4.0 0.00 0.00 0.00 72 1013.5
20260507180519 62 348 3.0 8.0 0.00 0.00 0.00 70 1013.4
20260507180018 62 314 2.0 6.0 0.00 0.00 0.00 69 1013.3
20260507175515 62 355 4.0 7.0 0.00 0.00 0.00 69 1013.2
20260507175035 62 348 3.0 7.0 0.00 0.00 0.00 69 1013.1
20260507174532 62 358 1.0 4.0 0.00 0.00 0.00 68 1013.1
20260507174030 62 355 2.0 6.0 0.00 0.00 0.00 68 1013.0
20260507173529 62 332 3.0 9.0 0.00 0.00 0.00 68 1013.0
20260507173026 62 342 3.0 8.0 0.00 0.00 0.00 68 1012.8
20260507172524 62 320 3.0 9.0 0.00 0.00 0.00 67 1012.8
20260507172023 63 332 3.0 8.0 0.00 0.00 0.00 67 1012.7
20260507171521 63 345 3.0 9.0 0.00 0.00 0.00 67 1012.6
20260507171019 63 344 2.0 7.0 0.00 0.00 0.00 66 1012.6
20260507170517 63 351 2.0 4.0 0.00 0.00 0.00 66 1012.4
20260507170036 63 1 2.0 7.0 0.00 0.00 0.00 66 1012.3
20260507165534 63 354 3.0 7.0 0.00 0.00 0.00 66 1012.2
20260507165032 63 333 2.0 4.0 0.00 0.00 0.00 66 1012.2
20260507164530 63 336 2.0 7.0 0.00 0.00 0.00 66 1012.1
20260507164028 63 359 1.0 6.0 0.00 0.00 0.00 66 1012.1
20260507163526 63 345 3.0 7.0 0.00 0.00 0.00 65 1012.2
20260507163024 64 352 4.0 9.0 0.00 0.00 0.00 65 1012.2
20260507162523 64 7 2.0 6.0 0.00 0.00 0.00 65 1012.2
20260507162021 64 347 3.0 10.0 0.00 0.00 0.00 65 1012.2
20260507161519 64 316 4.0 11.0 0.00 0.00 0.00 65 1012.3
20260507161048 64 344 2.0 8.0 0.00 0.00 0.00 65 1012.3
20260507161017 64 344 2.0 8.0 0.00 0.00 0.00 65 1012.3
20260507160536 64 333 3.0 9.0 0.00 0.00 0.00 65 1012.3
20260507160033 64 311 3.0 9.0 0.00 0.00 0.00 65 1012.2
20260507155531 64 334 4.0 9.0 0.00 0.00 0.00 65 1012.2
20260507155029 64 339 3.0 8.0 0.00 0.00 0.00 65 1012.2
20260507154527 64 14 3.0 7.0 0.00 0.00 0.00 65 1012.2
20260507154026 64 347 4.0 8.0 0.00 0.00 0.00 65 1012.1
20260507153523 64 304 2.0 7.0 0.00 0.00 0.00 65 1012.1
20260507153022 64 318 3.0 7.0 0.00 0.00 0.00 65 1012.1
20260507152520 64 346 2.0 6.0 0.00 0.00 0.00 65 1012.2
20260507152348 64 342 3.0 6.0 0.00 0.00 0.00 65 1012.2
20260507152050 64 342 3.0 6.0 0.00 0.00 0.00 65 1012.2
20260507152018 64 342 3.0 6.0 0.00 0.00 0.00 65 1012.2
20260507151516 65 349 3.0 7.0 0.00 0.00 0.00 65 1012.3
20260507151035 65 305 3.0 7.0 0.00 0.00 0.00 65 1012.1
20260507150533 65 320 3.0 8.0 0.00 0.00 0.00 65 1012.1
20260507150350 65 293 4.0 8.0 0.00 0.00 0.00 65 1012.3
20260507150031 65 293 4.0 8.0 0.00 0.00 0.00 65 1012.3
20260507145530 65 304 6.0 11.0 0.00 0.00 0.00 66 1012.4
20260507145027 64 313 4.0 10.0 0.00 0.00 0.00 66 1012.3
20260507144526 64 289 4.0 10.0 0.00 0.00 0.00 66 1012.2
20260507144025 65 330 5.0 13.0 0.00 0.00 0.00 65 1012.3
20260507143522 65 313 3.0 9.0 0.00 0.00 0.00 66 1012.2
20260507143020 64 292 5.0 9.0 0.00 0.00 0.00 66 1012.2
20260507142518 64 295 5.0 10.0 0.00 0.00 0.00 66 1012.2
20260507142016 64 297 5.0 9.0 0.00 0.00 0.00 66 1012.2
20260507141534 64 338 4.0 8.0 0.00 0.00 0.00 67 1012.1
20260507141033 64 348 5.0 11.0 0.00 0.00 0.00 66 1012.1
20260507140531 64 326 4.0 11.0 0.00 0.00 0.00 67 1012.1
20260507140029 64 345 5.0 11.0 0.00 0.00 0.00 67 1012.1
20260507135527 65 316 3.0 9.0 0.00 0.00 0.00 67 1012.2
20260507135047 65 351 4.0 9.0 0.00 0.00 0.00 66 1012.0
20260507135026 65 351 4.0 9.0 0.00 0.00 0.00 66 1012.0
20260507134524 65 331 3.0 8.0 0.00 0.00 0.00 67 1012.1
20260507134055 65 292 5.0 9.0 0.00 0.00 0.00 67 1012.1
20260507134022 65 292 5.0 9.0 0.00 0.00 0.00 67 1012.1
20260507133520 65 316 5.0 10.0 0.00 0.00 0.00 67 1012.0
20260507133019 64 312 6.0 13.0 0.00 0.00 0.00 68 1012.0
20260507132516 64 297 7.0 15.0 0.00 0.00 0.00 68 1012.1
20260507132035 64 298 7.0 14.0 0.00 0.00 0.00 68 1012.1
20260507131533 64 306 6.0 13.0 0.00 0.00 0.00 67 1012.2
20260507131031 64 301 6.0 15.0 0.00 0.00 0.00 67 1012.2
20260507130529 64 305 4.0 11.0 0.00 0.00 0.00 67 1012.1
20260507130027 64 305 5.0 11.0 0.00 0.00 0.00 67 1012.0
20260507125525 64 320 4.0 9.0 0.00 0.00 0.00 67 1012.0
20260507125024 64 312 4.0 8.0 0.00 0.00 0.00 67 1011.9
20260507124522 65 329 3.0 7.0 0.00 0.00 0.00 67 1011.9
20260507124020 65 318 3.0 10.0 0.00 0.00 0.00 67 1011.8
20260507123518 65 348 5.0 11.0 0.00 0.00 0.00 67 1011.8
20260507123016 64 311 4.0 10.0 0.00 0.00 0.00 68 1011.7
20260507122534 64 322 6.0 14.0 0.00 0.00 0.00 68 1011.7
20260507122033 64 353 5.0 10.0 0.00 0.00 0.00 68 1011.7
20260507121531 64 1 7.0 14.0 0.00 0.00 0.00 69 1011.8
20260507121029 64 315 5.0 11.0 0.00 0.00 0.00 69 1011.8
20260507120527 64 6 6.0 11.0 0.00 0.00 0.00 69 1011.8
20260507120025 64 1 5.0 13.0 0.00 0.00 0.00 68 1011.7
20260507115523 65 352 6.0 14.0 0.00 0.00 0.00 68 1011.6
20260507115022 65 353 6.0 14.0 0.00 0.00 0.00 68 1011.6
20260507114520 65 349 5.0 10.0 0.00 0.00 0.00 68 1011.6
20260507114018 65 350 5.0 15.0 0.00 0.00 0.00 68 1011.5
20260507113516 65 335 4.0 10.0 0.00 0.00 0.00 68 1011.5
20260507113035 65 318 4.0 7.0 0.00 0.00 0.00 68 1011.5
20260507112533 66 317 5.0 13.0 0.00 0.00 0.00 67 1011.4
20260507112031 66 313 6.0 14.0 0.00 0.00 0.00 67 1011.3
20260507111530 66 308 6.0 13.0 0.00 0.00 0.00 67 1011.3
20260507111027 66 327 6.0 10.0 0.00 0.00 0.00 67 1011.1
20260507110526 66 327 6.0 11.0 0.00 0.00 0.00 66 1011.1
20260507110024 67 319 7.0 14.0 0.00 0.00 0.00 66 1011.0
20260507105522 67 292 7.0 11.0 0.00 0.00 0.00 65 1011.0
20260507105020 67 307 3.0 9.0 0.00 0.00 0.00 65 1010.8
20260507104518 68 319 4.0 10.0 0.00 0.00 0.00 64 1010.7
20260507104018 68 308 5.0 13.0 0.00 0.00 0.00 64 1010.7
20260507103535 68 308 4.0 10.0 0.00 0.00 0.00 63 1010.6
20260507103033 68 308 5.0 9.0 0.00 0.00 0.00 63 1010.6
20260507102531 68 302 5.0 11.0 0.00 0.00 0.00 63 1010.3
20260507102031 69 301 6.0 17.0 0.00 0.00 0.00 63 1010.3
20260507101528 68 291 4.0 8.0 0.00 0.00 0.00 62 1010.3
20260507101026 68 306 4.0 7.0 0.00 0.00 0.00 62 1010.1
20260507100524 69 295 8.0 14.0 0.00 0.00 0.00 62 1010.1
20260507100022 69 307 5.0 10.0 0.00 0.00 0.00 62 1010.1
20260507095520 69 290 4.0 10.0 0.00 0.00 0.00 61 1010.0
20260507095103 69 291 5.0 11.0 0.00 0.00 0.00 60 1009.9
20260507095019 69 291 5.0 11.0 0.00 0.00 0.00 60 1009.9
20260507094517 69 306 4.0 9.0 0.00 0.00 0.00 59 1009.9
20260507094035 69 290 5.0 9.0 0.00 0.00 0.00 59 1009.9
20260507093534 69 289 5.0 14.0 0.00 0.00 0.00 58 1009.8
20260507093031 70 283 4.0 10.0 0.00 0.00 0.00 58 1009.8
20260507092529 70 285 4.0 10.0 0.00 0.00 0.00 59 1009.9
20260507092027 70 283 3.0 8.0 0.00 0.00 0.00 58 1009.7
20260507091525 70 297 4.0 8.0 0.00 0.00 0.00 58 1009.6
20260507091024 70 292 6.0 15.0 0.00 0.00 0.00 57 1009.7
20260507090522 70 294 5.0 9.0 0.00 0.00 0.00 57 1009.5
20260507090020 70 266 3.0 8.0 0.00 0.00 0.00 57 1009.4
20260507085519 70 298 5.0 13.0 0.00 0.00 0.00 58 1009.4
20260507085047 70 280 6.0 17.0 0.00 0.00 0.00 58 1009.4
20260507085016 70 280 6.0 17.0 0.00 0.00 0.00 58 1009.4
20260507084535 69 281 5.0 16.0 0.00 0.00 0.00 59 1009.4
20260507084048 69 281 6.0 15.0 0.00 0.00 0.00 58 1009.4
20260507084033 69 281 6.0 15.0 0.00 0.00 0.00 58 1009.4
20260507083531 69 288 6.0 15.0 0.00 0.00 0.00 59 1009.3
20260507083029 69 280 6.0 13.0 0.00 0.00 0.00 59 1009.2
20260507082528 69 284 6.0 11.0 0.00 0.00 0.00 59 1009.2
20260507082026 69 286 6.0 17.0 0.00 0.00 0.00 60 1009.1
20260507081524 69 285 4.0 13.0 0.00 0.00 0.00 60 1009.1
20260507081022 69 292 7.0 15.0 0.00 0.00 0.00 59 1009.0
20260507080520 69 288 6.0 13.0 0.00 0.00 0.00 59 1009.0
20260507080018 69 278 7.0 14.0 0.00 0.00 0.00 59 1009.0
20260507075517 69 288 7.0 15.0 0.00 0.00 0.00 59 1009.1
20260507075035 69 295 8.0 17.0 0.00 0.00 0.00 59 1009.0
20260507074533 69 280 7.0 18.0 0.00 0.00 0.00 59 1009.0
20260507074032 69 285 7.0 11.0 0.00 0.00 0.00 59 1009.0
20260507073530 69 281 6.0 15.0 0.00 0.00 0.00 59 1009.0
20260507073028 68 287 6.0 14.0 0.00 0.00 0.00 60 1008.8
20260507072526 68 251 5.0 9.0 0.00 0.00 0.00 60 1008.8
20260507072024 68 280 5.0 11.0 0.00 0.00 0.00 60 1008.7
20260507071522 68 277 6.0 11.0 0.00 0.00 0.00 59 1008.7
20260507071020 67 264 6.0 15.0 0.00 0.00 0.00 60 1008.7
20260507070518 67 280 6.0 14.0 0.00 0.00 0.00 61 1008.6
20260507070016 67 270 4.0 10.0 0.00 0.00 0.00 61 1008.5
20260507065535 67 259 5.0 13.0 0.00 0.00 0.00 61 1008.5
20260507065033 67 249 5.0 10.0 0.00 0.00 0.00 62 1008.4
20260507064531 66 281 4.0 11.0 0.00 0.00 0.00 62 1008.4
20260507064029 66 282 4.0 10.0 0.00 0.00 0.00 63 1008.4
20260507063527 65 278 4.0 9.0 0.00 0.00 0.00 64 1008.5
20260507063026 65 265 5.0 13.0 0.00 0.00 0.00 65 1008.4
20260507062524 65 222 3.0 7.0 0.00 0.00 0.00 66 1008.4
20260507062022 64 245 3.0 7.0 0.00 0.00 0.00 67 1008.4
20260507061520 64 254 3.0 7.0 0.00 0.00 0.00 67 1008.2
20260507061018 63 254 3.0 11.0 0.00 0.00 0.00 68 1008.3
20260507060516 63 247 4.0 8.0 0.00 0.00 0.00 69 1008.4
20260507060035 62 260 3.0 7.0 0.00 0.00 0.00 70 1008.4
20260507055534 62 184 3.0 8.0 0.00 0.00 0.00 71 1008.4
20260507055031 62 203 2.0 4.0 0.00 0.00 0.00 72 1008.3
20260507054529 61 225 2.0 4.0 0.00 0.00 0.00 72 1008.3
20260507054027 61 215 2.0 4.0 0.00 0.00 0.00 72 1008.3
20260507053526 61 181 2.0 6.0 0.00 0.00 0.00 73 1008.3
20260507053024 60 191 2.0 4.0 0.00 0.00 0.00 73 1008.3
20260507052522 60 208 1.0 3.0 0.00 0.00 0.00 74 1008.3
20260507052020 60 177 3.0 7.0 0.00 0.00 0.00 74 1008.3
20260507051518 59 177 2.0 4.0 0.00 0.00 0.00 74 1008.2
20260507051016 59 157 2.0 4.0 0.00 0.00 0.00 74 1008.2
20260507050536 59 154 0.0 3.0 0.00 0.00 0.00 74 1008.2
20260507050033 59 145 1.0 4.0 0.00 0.00 0.00 74 1008.2
20260507045531 59 179 1.0 3.0 0.00 0.00 0.00 72 1008.2
20260507045106 58 0.0 0.0 0.00 0.00 0.00 72 1008.0
20260507045029 58 0.0 0.0 0.00 0.00 0.00 72 1008.0
20260507044527 58 0.0 0.0 0.00 0.00 0.00 72 1008.0
20260507044025 58 0.0 0.0 0.00 0.00 0.00 72 1008.1
20260507043524 58 0.0 0.0 0.00 0.00 0.00 72 1008.1
20260507043022 58 0.0 0.0 0.00 0.00 0.00 72 1008.1
20260507042520 58 0.0 0.0 0.00 0.00 0.00 72 1008.1
20260507042049 58 0.0 0.0 0.00 0.00 0.00 72 1008.1
20260507042018 58 0.0 0.0 0.00 0.00 0.00 72 1008.1
20260507041516 58 304 0.0 1.0 0.00 0.00 0.00 72 1008.1
20260507041034 58 293 0.0 1.0 0.00 0.00 0.00 72 1007.9
20260507040532 58 0.0 0.0 0.00 0.00 0.00 71 1007.9
20260507040031 58 0.0 0.0 0.00 0.00 0.00 71 1007.8
20260507035528 58 0.0 0.0 0.00 0.00 0.00 71 1007.8
20260507035027 58 0.0 0.0 0.00 0.00 0.00 71 1007.7
20260507034525 58 0.0 0.0 0.00 0.00 0.00 71 1007.8
20260507034024 58 0.0 0.0 0.00 0.00 0.00 71 1007.7
20260507033521 58 0.0 0.0 0.00 0.00 0.00 71 1007.6
20260507033020 58 0.0 0.0 0.00 0.00 0.00 70 1007.6
20260507032518 58 0.0 0.0 0.00 0.00 0.00 70 1007.6
20260507032016 58 104 0.0 1.0 0.00 0.00 0.00 70 1007.5
20260507031534 58 0.0 0.0 0.00 0.00 0.00 70 1007.5
20260507031049 59 0.0 0.0 0.00 0.00 0.00 70 1007.3
20260507031032 59 0.0 0.0 0.00 0.00 0.00 70 1007.3
20260507030530 59 0.0 0.0 0.00 0.00 0.00 69 1007.3
20260507030029 59 0.0 0.0 0.00 0.00 0.00 69 1007.3
20260507025527 59 169 0.0 2.0 0.00 0.00 0.00 69 1007.4
20260507025025 59 169 0.0 1.0 0.00 0.00 0.00 69 1007.3
20260507024523 59 0.0 0.0 0.00 0.00 0.00 69 1007.2
20260507024021 60 0.0 0.0 0.00 0.00 0.00 69 1007.3
20260507023520 60 0.0 0.0 0.00 0.00 0.00 69 1007.4
20260507023017 60 0.0 0.0 0.00 0.00 0.00 69 1007.3
20260507022516 60 0.0 0.0 0.00 0.00 0.00 69 1007.4
20260507022034 60 0.0 0.0 0.00 0.00 0.00 69 1007.2
20260507021532 60 0.0 0.0 0.00 0.00 0.00 69 1007.3
20260507021030 60 0.0 0.0 0.00 0.00 0.00 69 1007.4
20260507020528 60 333 0.0 2.0 0.00 0.00 0.00 69 1007.5
20260507020027 60 315 1.0 3.0 0.00 0.00 0.00 70 1007.5
20260507015525 60 297 2.0 4.0 0.00 0.00 0.00 70 1007.4
20260507015023 60 300 1.0 7.0 0.00 0.00 0.00 71 1007.4
20260507014522 60 332 3.0 8.0 0.00 0.00 0.00 71 1007.3
20260507014020 61 315 3.0 7.0 0.00 0.00 0.00 70 1007.3
20260507013518 61 177 1.0 2.0 0.00 0.00 0.00 67 1007.1
20260507013016 61 171 2.0 3.0 0.00 0.00 0.00 67 1007.0
20260507012534 61 171 2.0 3.0 0.00 0.00 0.00 67 1007.0
20260507012033 61 178 2.0 3.0 0.00 0.00 0.00 67 1007.1
20260507011531 61 171 2.0 4.0 0.00 0.00 0.00 67 1007.0
20260507011109 61 175 2.0 7.0 0.00 0.00 0.00 67 1007.1
20260507011029 61 175 2.0 7.0 0.00 0.00 0.00 67 1007.1
20260507010528 61 170 3.0 4.0 0.00 0.00 0.00 67 1007.0
20260507010026 61 167 3.0 4.0 0.00 0.00 0.00 66 1007.0
20260507005524 61 169 2.0 3.0 0.00 0.00 0.00 66 1006.9
20260507005022 61 171 2.0 4.0 0.00 0.00 0.00 66 1006.9
20260507004520 62 170 2.0 6.0 0.00 0.00 0.00 67 1007.0
20260507004049 62 166 1.0 3.0 0.00 0.00 0.00 67 1007.1
20260507004018 62 166 1.0 3.0 0.00 0.00 0.00 67 1007.1
20260507003517 62 168 2.0 6.0 0.00 0.00 0.00 67 1007.0
20260507003035 62 175 0.0 3.0 0.00 0.00 0.00 66 1006.9
20260507002533 62 0.0 0.0 0.00 0.00 0.00 66 1007.0
20260507002031 62 0.0 0.0 0.00 0.00 0.00 66 1007.0
20260507001529 62 0.0 0.0 0.00 0.00 0.00 66 1007.0
20260507001027 62 0.0 0.0 0.00 0.00 0.00 66 1007.0
20260507000525 62 227 0.0 3.0 0.00 0.00 0.00 66 1007.0
20260507000339 62 177 2.0 6.0 0.00 0.00 0.00 67 1007.1
20260507000048 62 177 2.0 6.0 0.00 0.00 0.00 67 1007.1
20260507000023 62 177 2.0 6.0 0.00 0.00 0.00 67 1007.1
20260506235522 62 214 2.0 4.0 0.00 0.00 0.00 68 1007.2
20260506235020 62 286 3.0 9.0 0.00 0.00 0.00 68 1007.2
20260506234518 62 286 1.0 3.0 0.00 0.00 0.00 67 1007.0
20260506234018 62 196 1.0 3.0 0.00 0.00 0.00 67 1007.0
20260506233535 62 156 1.0 3.0 0.00 0.00 0.00 66 1007.1
20260506233107 62 188 2.0 4.0 0.00 0.00 0.00 65 1007.1
20260506233033 62 188 2.0 4.0 0.00 0.00 0.00 65 1007.1